Simultaneous Nadir Overpasses (SNOs) Predictions

Prediction of SNOs between AQUA and METOP-B Satellite Orbit:

Table of predicted SNOs for the next 14.0 days since TLE Epoch: 8/26/2022
Index Date (AQUA) Time (AQUA) Lat,Lon (AQUA) SZA (AQUA ) Date (METOP-B) Time (METOP-B) Lat,Lon (METOP-B) SZA (METOP-B ) Distance(km) Time Diff (sec)
1 08/29/2022 04:56:29 73.53, 101.71 64.13 08/29/2022 04:55:22 73.45, 99.40 64.13 73.67 67
2 08/29/2022 05:46:05 -74.08, -91.87 115.28 08/29/2022 05:45:51 -74.07, -91.80 115.29 2.43 14
3 08/29/2022 06:35:33 74.15, 75.62 64.81 08/29/2022 06:36:30 74.12, 75.66 64.78 3.21 57
4 09/01/2022 00:30:12 74.05, 167.18 65.69 09/01/2022 00:29:30 74.07, 167.28 65.71 3.43 42
5 09/01/2022 01:19:38 -74.08, -25.24 114.27 09/01/2022 01:20:11 -74.10, -25.33 114.26 2.91 33
6 09/03/2022 19:14:18 -74.05, 66.18 113.32 09/03/2022 19:13:11 -74.04, 66.29 113.31 3.41 67
7 09/03/2022 20:03:45 74.07,-126.23 66.73 09/03/2022 20:03:50 74.09,-126.26 66.74 1.97 5
8 09/03/2022 20:53:15 -74.30, 40.87 113.02 09/03/2022 20:54:27 -74.31, 41.63 113.03 22.94 72
9 09/06/2022 14:47:50 -74.07, 132.75 112.25 09/06/2022 14:47:30 -74.06, 132.75 112.26 1.59 20
10 09/06/2022 15:37:18 74.15, -59.79 67.85 09/06/2022 15:38:08 74.15, -59.69 67.84 3.11 50
11 09/09/2022 09:31:56 74.04, 31.81 68.76 09/09/2022 09:31:09 74.04, 31.78 68.76 1.14 47
12 09/09/2022 10:21:23 -74.11,-160.71 111.16 09/09/2022 10:21:49 -74.12,-160.68 111.15 1.30 26



Historial Predications of SNOs between AQUA and METOP-B
